Home   Weather   Ulaanbaatar   Past weeks

Flag for Mongolia Past Weather in Ulaanbaatar, Mongolia — Yesterday and Last 2 Weeks

Now
55 °F

Clear.


Feels Like: 55 °F
Forecast: 48 / 80 °F
Wind: 3 mph from South

Location: Ulan-Bator

Current Time: Jul 26, 2017 at 11:06:02 pm

Latest Report: Jul 26, 2017 at 10:30 pm


Visibility: 10 mi

Pressure: 29.95 "Hg (25.65 "Hg at 1298m altitude)

Humidity: 67%

Dew Point: 45 °F

Location of UlaanbaatarLocation

Past Weather in Ulaanbaatar — Graph

°F

Ulaanbaatar Temperature Yesterday

Maximum temperature yesterday: 75 °F (at 3:00 pm)
Minimum temperature yesterday: 54 °F (at 11:00 pm)
Average temperature yesterday: 62 °F

High & Low Weather Summary for the Past Weeks

 TemperatureHumidityPressure
High99 °F (Jul 15, 2:00 pm)94% (Jul 18, 5:00 am)30.07 "Hg (Jul 18, 5:00 am)
Low45 °F (Jul 26, 5:30 am)10% (Jul 14, 5:30 pm)29.65 "Hg (Jul 11, 10:00 pm)
Average68 °F51%29.88 "Hg
* Reported Jul 11 10:00 pm — Jul 26 10:30 pm, Ulaanbaatar. Weather by CustomWeather, © 2017

Note: Actual official high and low records may vary slightly from our data, if they occured in-between our weather recording intervals... More about our weather records

Advertising

Ulaanbaatar Weather History for the Previous 24 Hours

Scroll right to see more
 ConditionsComfort  
Time TempWeatherWind HumidityBarometerVisibility
10:30 pm
Wed, Jul 26
55 °FClear.3 mph67%29.95 "Hg10 mi
10:00 pm55 °FClear.1 mph72%29.92 "Hg10 mi
9:00 pm68 °FSunny.3 mph38%29.92 "Hg10 mi
8:30 pm70 °FSunny.3 mph38%29.92 "Hg10 mi
8:00 pm70 °FSunny.6 mph38%29.89 "Hg10 mi
7:30 pm72 °FSunny.8 mph33%29.89 "Hg10 mi
7:00 pm72 °FPassing clouds.8 mph33%29.86 "HgN/A
6:30 pm73 °FPassing clouds.8 mph33%29.86 "HgN/A
6:00 pm73 °FPassing clouds.10 mph36%29.86 "HgN/A
5:30 pm73 °FPassing clouds.13 mph33%29.86 "HgN/A
5:00 pm73 °FPassing clouds.8 mph33%29.86 "HgN/A
4:30 pm73 °FPassing clouds.8 mph33%29.86 "HgN/A
4:00 pm73 °FScattered clouds.10 mph36%29.86 "HgN/A
3:30 pm72 °FScattered clouds.10 mph36%29.86 "HgN/A
3:00 pm72 °FScattered clouds.15 mph31%29.89 "HgN/A
2:00 pm68 °FScattered clouds.10 mph49%29.89 "HgN/A
1:30 pm68 °FScattered clouds.8 mph43%29.89 "HgN/A
1:00 pm66 °FScattered clouds.8 mph52%29.92 "HgN/A
12:30 pm66 °FScattered clouds.10 mph52%29.92 "HgN/A
12:00 pm66 °FScattered clouds.10 mph52%29.92 "HgN/A
11:30 am64 °FScattered clouds.8 mph52%29.92 "HgN/A
11:00 am64 °FScattered clouds.8 mph56%29.92 "HgN/A
10:30 am63 °FPassing clouds.6 mph56%29.92 "HgN/A
10:00 am63 °FMild.6 mph59%29.92 "HgN/A
9:30 am59 °FPassing clouds.3 mph68%29.92 "HgN/A
9:00 am57 °FPassing clouds.1 mph72%29.92 "HgN/A
8:30 am57 °FPassing clouds.No wind72%29.92 "HgN/A
8:00 am54 °FSunny.No wind77%29.92 "Hg10 mi
7:30 am52 °FSunny.No wind82%29.89 "Hg10 mi
7:00 am50 °FSunny.No wind88%29.89 "Hg10 mi
6:30 am48 °FSunny.No wind87%29.89 "Hg10 mi
6:00 am46 °FClear.No wind87%29.89 "Hg10 mi
5:30 am45 °FClear.No wind87%29.89 "Hg10 mi
5:00 am46 °FClear.1 mph87%29.89 "Hg10 mi
4:30 am46 °FClear.3 mph87%29.89 "Hg10 mi
4:00 am46 °FClear.1 mph87%29.89 "Hg10 mi
3:30 am48 °FClear.1 mph87%29.89 "Hg10 mi
3:00 am48 °FClear.1 mph94%29.89 "Hg10 mi
2:30 am46 °FClear.1 mph93%29.86 "Hg10 mi
2:00 am52 °FClear.1 mph88%29.86 "Hg10 mi
1:30 am50 °FClear.No wind94%29.86 "Hg10 mi
1:00 am52 °FClear.1 mph82%29.86 "Hg10 mi
12:30 am55 °FClear.3 mph77%29.86 "Hg10 mi
12:00 am55 °FClear.1 mph77%29.86 "Hg10 mi
11:30 pm
Tue, Jul 25
54 °FClear.No wind82%29.86 "Hg10 mi
11:00 pm54 °FClear.1 mph82%29.86 "Hg10 mi
Weather by CustomWeather, © 2017

See weather overviewHow to use our weather pages